This is the latest recevied weather packets stored in our database for station/object K6POO-1. If no packets are shown the sender has not sent any weather packets the latest 10 day(s).
| Time | Temp. | Humidity | Pressure | Rain* | Wind** | Luminosity | Snow |
|---|---|---|---|---|---|---|---|
| 1778110799 | 17.22° C | 71% | 1018.7 hPa | 0 mm | - | 466 W/m² | - |
| 1778110495 | 17.78° C | 69% | 1018.7 hPa | 0 mm | - | 486 W/m² | - |
| 1778110192 | 18.33° C | 68% | 1018.6 hPa | 0 mm | - | 507 W/m² | - |
| 1778109889 | 18.33° C | 68% | 1018.5 hPa | 0 mm | - | 522 W/m² | - |
| 1778109584 | 18.33° C | 68% | 1018.5 hPa | 0 mm | - | 542 W/m² | - |
| 1778109281 | 18.33° C | 68% | 1018.8 hPa | 0 mm | - | 560 W/m² | - |
| 1778108979 | 18.33° C | 68% | 1018.7 hPa | 0 mm | - | 578 W/m² | - |
| 1778108675 | 18.89° C | 68% | 1018.7 hPa | 0 mm | - | 596 W/m² | - |
| 1778108371 | 18.89° C | 68% | 1018.7 hPa | 0 mm | - | 614 W/m² | - |
| 1778108069 | 18.33° C | 69% | 1018.8 hPa | 0 mm | - | 631 W/m² | - |
| 1778107766 | 18.33° C | 69% | 1018.8 hPa | 0 mm | - | 648 W/m² | - |
| 1778107463 | 18.89° C | 67% | 1019.1 hPa | 0 mm | - | 662 W/m² | - |
| 1778107159 | 18.33° C | 68% | 1019.1 hPa | 0 mm | - | 680 W/m² | - |
| 1778106855 | 18.33° C | 68% | 1019.2 hPa | 0 mm | - | 691 W/m² | - |
| 1778106553 | 18.33° C | 69% | 1019.2 hPa | 0 mm | - | 709 W/m² | - |
| 1778106248 | 18.89° C | 68% | 1019.3 hPa | 0 mm | - | 726 W/m² | - |
| 1778105946 | 18.89° C | 67% | 1019.2 hPa | 0 mm | - | 740 W/m² | - |
| 1778105643 | 18.89° C | 67% | 1019.5 hPa | 0 mm | - | 753 W/m² | - |
| 1778105341 | 18.89° C | 66% | 1019.4 hPa | 0 mm | - | 768 W/m² | - |
| 1778105036 | 18.89° C | 68% | 1019.5 hPa | 0 mm | - | 781 W/m² | - |
| 1778104733 | 18.89° C | 66% | 1019.7 hPa | 0 mm | - | 794 W/m² | - |
| 1778104429 | 19.44° C | 66% | 1019.7 hPa | 0 mm | - | 805 W/m² | - |
| 1778104125 | 19.44° C | 66% | 1019.5 hPa | 0 mm | - | 816 W/m² | - |
| 1778103822 | 19.44° C | 65% | 1019.7 hPa | 0 mm | - | 830 W/m² | - |
| 1778103520 | 19.44° C | 65% | 1019.6 hPa | 0 mm | - | 838 W/m² | - |
* Rain latest hour (hover to see other rain measurements)
** Current wind speed in m/s (hover to see current wind gust speed)